This is the latest recevied weather packets stored in our database for station/object YT6PT-8. If no packets are shown the sender has not sent any weather packets the latest 10 day(s).
| Time | Temp. | Humidity | Pressure | Rain* | Wind** | Luminosity | Snow |
|---|---|---|---|---|---|---|---|
| 1787827850 | 27.78° C | 45% | 1010.7 hPa | 0 mm | 0.45 m/s, 68° | - | - |
| 1787827551 | 27.78° C | 43% | 1010.8 hPa | 0 mm | 0.45 m/s, 68° | - | - |
| 1787827240 | 27.78° C | 43% | 1010.8 hPa | 0 mm | 0.45 m/s, 68° | - | - |
| 1787826933 | 26.67° C | 46% | 1010.8 hPa | 0 mm | 0.45 m/s, 248° | - | - |
| 1787826638 | 27.22° C | 47% | 1011.1 hPa | 0 mm | 0 m/s | - | - |
| 1787826333 | 27.22° C | 47% | 1011.1 hPa | 0 mm | 0 m/s | - | - |
| 1787826033 | 27.22° C | 47% | 1011.2 hPa | 0 mm | 2.24 m/s, 68° | - | - |
| 1787825731 | 27.22° C | 47% | 1011.2 hPa | 0 mm | 2.24 m/s, 68° | - | - |
| 1787825432 | 27.22° C | 47% | 1011.2 hPa | 0 mm | 2.24 m/s, 68° | - | - |
| 1787825133 | 26.67° C | 49% | 1011.2 hPa | 0 mm | 0.89 m/s, 90° | - | - |
| 1787824833 | 26.67° C | 49% | 1011.2 hPa | 0 mm | 0.89 m/s, 90° | - | - |
| 1787824532 | 26.67° C | 46% | 1011.2 hPa | 0 mm | 0 m/s | - | - |
| 1787824233 | 26.67° C | 46% | 1011.2 hPa | 0 mm | 0 m/s | - | - |
| 1787823933 | 27.22° C | 46% | 1011.3 hPa | 0 mm | 0.89 m/s, 0° | - | - |
| 1787823633 | 27.22° C | 46% | 1011.3 hPa | 0 mm | 0.89 m/s, 0° | - | - |
| 1787823333 | 27.22° C | 47% | 1011.3 hPa | 0 mm | 0.89 m/s, 22° | - | - |
| 1787823038 | 27.22° C | 47% | 1011.3 hPa | 0 mm | 0.89 m/s, 22° | - | - |
| 1787822731 | 27.22° C | 50% | 1011.2 hPa | 0 mm | 1.34 m/s, 135° | - | - |
| 1787822432 | 27.22° C | 50% | 1011.2 hPa | 0 mm | 1.34 m/s, 135° | - | - |
| 1787822131 | 26.67° C | 48% | 1011.2 hPa | 0 mm | 1.79 m/s, 158° | - | - |
| 1787821832 | 26.67° C | 48% | 1011.2 hPa | 0 mm | 1.79 m/s, 158° | - | - |
| 1787821532 | 26.11° C | 50% | 1011.2 hPa | 0 mm | 0 m/s | - | - |
| 1787821232 | 26.11° C | 53% | 1011.1 hPa | 0 mm | 0.89 m/s, 180° | - | - |
| 1787820932 | 26.11° C | 53% | 1011.1 hPa | 0 mm | 0.89 m/s, 180° | - | - |
| 1787820634 | 26.11° C | 53% | 1011.1 hPa | 0 mm | 0.89 m/s, 180° | - | - |
* Rain latest hour (hover to see other rain measurements)
** Current wind speed in m/s (hover to see current wind gust speed)